Weather History for KMIC - May, 2014

Change the Weather History Date:

Wednesday, May 14, 2014

  Actual Average Record
Temperature  
Mean Temperature 50 °F -  
Max Temperature 61 °F 66 °F 96 °F (2013)
Min Temperature 39 °F 44 °F 36 °F (2004)
Degree Days  
Heating Degree Days 16    
Moisture  
Dew Point 31 °F    
Average Humidity 53    
Maximum Humidity 86    
Minimum Humidity 32    
Precipitation  
Precipitation 0.00 in - - ()
Sea Level Pressure  
Sea Level Pressure 30.20 in    
Wind  
Wind Speed 7 mph (WNW)    
Max Wind Speed 15 mph    
Max Gust Speed 18 mph    
Visibility 10 miles    
Events      
Averages and records for this station are not official NWS values.
T = Trace of Precipitation, MM = Missing Value Source: NWS Daily Summary

Daily Weather History Graph

Daily Weather History Graph

Search for Another Location

Airport or City:

Trip Planner

Search our weather history database for the weather conditions in past years. The results will help you decide how hot, cold, wet, or windy it might be!

Date:

Astronomy

May. 14, 2014 Rise Set
Actual Time 5:45 AM CDT 8:34 PM CDT
Civil Twilight 5:11 AM CDT 9:09 PM CDT
Nautical Twilight 4:27 AM CDT 9:52 PM CDT
Astronomical Twilight 3:37 AM CDT 10:43 PM CDT
Moon 8:39 PM CDT (5/14) 5:46 AM CDT (5/14)
Length of Visible Light 15h 58m
Length of Day
14h 49m
Full, 100% of the Moon is Illuminated
May 14
Full
May 14
Full
May 21
Last Quarter
May 28
New
Jun 5
First Quarter

Hourly Weather History & Observations

Time (CDT) Temp. Windchill Dew Point Humidity Pressure Visibility Wind Dir Wind Speed Gust Speed Precip Events Conditions
12:53 AM 43.0 °F 40.3 °F 33.1 °F 68% 30.20 in 10.0 mi WSW 4.6 mph - N/A   Clear
1:53 AM 42.1 °F 38.4 °F 34.0 °F 73% 30.21 in 10.0 mi WSW 5.8 mph - N/A   Clear
2:53 AM 41.0 °F 36.4 °F 34.0 °F 76% 30.21 in 10.0 mi West 6.9 mph - N/A   Clear
3:53 AM 39.9 °F 35.8 °F 34.0 °F 79% 30.21 in 10.0 mi West 5.8 mph - N/A   Clear
4:53 AM 39.9 °F 35.8 °F 33.1 °F 77% 30.20 in 10.0 mi West 5.8 mph - N/A   Clear
5:53 AM 39.0 °F 36.8 °F 33.1 °F 79% 30.21 in 10.0 mi West 3.5 mph - N/A   Clear
6:53 AM 39.9 °F - 36.0 °F 86% 30.23 in 10.0 mi Calm Calm - N/A   Clear
7:53 AM 45.0 °F 42.6 °F 36.0 °F 71% 30.23 in 10.0 mi Variable 4.6 mph - N/A   Clear
8:53 AM 48.0 °F - 35.1 °F 61% 30.23 in 10.0 mi West 3.5 mph - N/A   Clear
10:53 AM 55.0 °F - 33.1 °F 43% 30.22 in 10.0 mi West 5.8 mph - N/A   Clear
11:53 AM 57.0 °F - 30.9 °F 37% 30.21 in 10.0 mi NW 8.1 mph - N/A   Clear
12:53 PM 55.9 °F - 30.9 °F 39% 30.20 in 10.0 mi WNW 9.2 mph - N/A   Mostly Cloudy
1:53 PM 57.0 °F - 28.9 °F 34% 30.18 in 10.0 mi NW 5.8 mph - N/A   Mostly Cloudy
2:53 PM 57.9 °F - 28.0 °F 32% 30.18 in 10.0 mi WNW 8.1 mph 18.4 mph N/A   Scattered Clouds
3:53 PM 60.1 °F - 30.0 °F 32% 30.17 in 10.0 mi NW 13.8 mph - N/A   Mostly Cloudy
4:53 PM 59.0 °F - 28.9 °F 32% 30.17 in 10.0 mi NW 9.2 mph - N/A   Scattered Clouds
5:53 PM 57.0 °F - 28.0 °F 33% 30.16 in 10.0 mi NNW 11.5 mph - N/A   Mostly Cloudy
6:53 PM 55.9 °F - 27.0 °F 33% 30.15 in 10.0 mi North 11.5 mph - N/A   Overcast
7:53 PM 54.0 °F - 25.0 °F 33% 30.15 in 10.0 mi North 12.7 mph - N/A   Clear
8:53 PM 50.0 °F - 27.0 °F 41% 30.18 in 10.0 mi NNW 15.0 mph - N/A   Clear
10:53 PM 46.0 °F 40.6 °F 28.0 °F 50% 30.20 in 10.0 mi NNW 11.5 mph - N/A   Mostly Cloudy
11:53 PM 44.1 °F 39.0 °F 28.9 °F 55% 30.20 in 10.0 mi North 9.2 mph - N/A   Mostly Cloudy